Torna al catalogo

FENGYUN 1C DEB

AttivoSSO
NORAD 30231·DEBRIS·🇨🇳 China

Lanciato May 10, 1999 da Taiyuan Satellite Launch Center

Loading…

Prossimi Passaggi (prossime 24 ore)

TLE

AggiornatoSource: Space-Track

Epoca: Sep 13, 2026, 15:40 UTC

1 30231U 99025WQ  26256.65302791  .00000654  00000-0  35210-3 0  9997
2 30231  98.7725 300.9670 0126766 329.0540 154.5939 14.12224701  8980

Traccia FENGYUN 1C DEB in tempo reale con AllMySat

Download on the App Store